Location: Newark
(52.4787°S, 179.0532°W)
Time: 20:45:40
(UTC+00:00)

Vanguard 1 - Pass Details

Date: 19 November 2019
Orbit: 652 x 3831 km, 34.2° (Epoch: 05 December)

Event Time Altitude Azimuth Distance (km) Brightness Sun altitude
Rises 10:56:40 0° 309° (NW) 5,544 13.6 -17.4°
Reaches altitude 10° 11:00:05 10° 317° (NW) 4,922 13.3 -17.5°
Maximum altitude 11:13:49 40° 19° (NNE) 4,186 12.7 -17.8°
Drops below altitude 10° 11:33:29 10° 77° (ENE) 6,937 14.2 -18.0°
Sets 11:39:30 0° 83° (E) 7,962 14.6 -18.1°
